Regional Weather Roundup
Issued by NWS

Home | Current Version | Previous Version | Text Only | Print | Product List | Glossary On
Versions: 1 2 3 4 5 6 7 8 9 10 11 12 13 14 15 16 17 18 19 20 21 22 23 24 25 26 27 28 29 30 31 32 33 34 35 36 37 38 39 40 41 42 43 44 45 46 47 48 49 50
000
ASUS46 KSEW 060910
RWRWA

WASHINGTON REGIONAL WEATHER ROUNDUP
NATIONAL WEATHER SERVICE SEATTLE WA
100 AM PST FRI MAR 06 2015

NOTE:"FAIR" INDICATES FEW OR NO CLOUDS BELOW 12,000 FEET WITH NO
SIGNIFICANT WEATHER AND/OR OBSTRUCTIONS TO VISIBILITY.

WAZ505-507>509-061000-
SEATTLE, TACOMA, EVERETT, AND VICINITY

CITY           SKY/WX    TMP DP  RH WIND       PRES   REMARKS
EVERETT        PTCLDY    42  34  73 CALM      30.39S
BOEING FIELD   MOCLDY    46  37  71 CALM      30.39F
RENTON         MOCLDY    41  35  79 CALM      30.39F
SEATAC AIRPORT MOCLDY    45  37  73 CALM      30.39S
JBLM-MCCHORD   MOCLDY    35  35  99 CALM      30.38S
PUYALLUP       FAIR      37  36  93 CALM      30.38S
BREMERTON      MOCLDY    34  32  93 CALM      30.41S
JBLM-FT LEWIS  MOCLDY    36  34  91 SE3       30.38S
TACOMA NARROWS MOCLDY    42  36  79 CALM      30.39S
$$

WAZ001-503-506-510-514-515-061000-
NORTH INTERIOR

CITY           SKY/WX    TMP DP  RH WIND       PRES   REMARKS
BELLINGHAM     FAIR      35  30  82 CALM      30.40S
FRIDAY HARBOR    N/A     36  35  96 CALM      30.42S
EASTSOUND      CLEAR     37  36  93 CALM      30.40S
PORT ANGELES   PTCLDY    37  34  89 CALM      30.40S
NAS WHIDBEY    PTCLDY    36  32  85 SE5       30.41S
ARLINGTON      CLEAR     30  25  80 CALM      30.41F
BURLINGTON     CLEAR     43  36  75 NE9       30.41S
$$

WAZ020-022-039-040-504-511-512-061000-
SOUTHWEST INTERIOR

CITY           SKY/WX    TMP DP  RH WIND       PRES   REMARKS
SHELTON        PTCLDY    32  29  88 CALM      30.37S
OLYMPIA        PTCLDY    34  31  88 CALM      30.39S
CHEHALIS       FAIR      36  36 100 CALM      30.39S
KELSO          CLEAR     37  34  87 CALM      30.42S
VANCOUVER      CLEAR     38  32  79 CALM      30.38S
SCAPPOOSE, OR  CLEAR     38  35  89 W3        30.38S
PORTLAND, OR   CLEAR     42  36  79 CALM      30.39S
$$

WAZ021-516-517-061000-
WASHINGTON COAST

CITY           SKY/WX    TMP DP  RH WIND       PRES   REMARKS
FORKS          CLEAR     37  37 100 CALM      30.37S
HOQUIAM        PTCLDY    39  36  89 E5        30.36F
ASTORIA, OR    CLEAR     39  36  89 E5        30.34F
$$

WAZ019-023-024-040-518-519-061000-
CASCADE MOUNTAINS AND COLUMBIA GORGE

CITY           SKY/WX    TMP DP  RH WIND       PRES   REMARKS
TROUTDALE, OR  CLEAR     39  35  86 E3        30.38R
THE DALLES, OR CLEAR     40  32  73 E3        30.38R
$$

WAZ026-027-041>044-520-521-061000-
EAST SLOPES

CITY           SKY/WX    TMP DP  RH WIND       PRES   REMARKS
OMAK           CLOUDY    35  27  72 W5        30.35R
WENATCHEE      CLOUDY    44  30  57 CALM      30.34S
ELLENSBURG     MOCLDY    38  28  67 E5        30.32S
YAKIMA         PTCLDY    34  28  79 SW5       30.36R
$$

WAZ028-034-035-061000-
COLUMBIA BASIN

CITY           SKY/WX    TMP DP  RH WIND       PRES   REMARKS
EPHRATA        MOCLDY    37  27  67 CALM      30.34S
MOSES LAKE     MOCLDY    32  26  78 N3        30.35S
PASCO          CLEAR     28  25  88 N3        30.38R
HERMISTON, OR  PTCLDY    28  24  85 SE5       30.35S
$$

WAZ036>038-061000-
NORTHEAST WASHINGTON

CITY           SKY/WX    TMP DP  RH WIND       PRES   REMARKS
SPOKANE GEIGER MOCLDY    35  22  58 SE6       30.33R
SPOKANE FELTS  MOCLDY    32  24  72 NE5       30.36R
FAIRCHILD AFB  MOCLDY    35  22  59 S5        30.32S
COEURDALENE,ID PTCLDY    30  25  80 CALM      30.34S
DEER PARK      MOCLDY    27  22  81 CALM      30.34S
$$

WAZ029>033-061000-
SOUTHEAST WASHINGTON

CITY           SKY/WX    TMP DP  RH WIND       PRES   REMARKS
PULLMAN        CLEAR     32  22  66 CALM      30.37R
LEWISTON, ID   CLEAR     37  25  61 E5        30.38R
WALLA WALLA    CLEAR     39  26  59 CALM      30.35R
PENDLETON, OR  PTCLDY    40  26  57 SE10      30.34S
$$


USA.gov is the U.S. government's official web portal to all federal, state and local government web resources and services.